Location: Indian Springs
(36.5700°N, 115.6700°W)
Time: 05:54:36
(UTC-07:00)

Amateur Radio Satellites - All Passes

Search period start: 26 May 2017 05:24
Search period end: 27 May 2017 05:24
Location: Indian Springs, 36.5700°N, 115.6700°W

Satellite Date Start Highest point End Downlink Frequencies (MHz)
Time Altitude Azimuth
DOVE 4 26 May 05:34:10 05:36:59 17° 94° (E) 05:39:50 437.250
PCSat 26 May 05:39:20 05:44:17 37° 250° (WSW) 05:49:12 145.827
BEESAT 2 26 May 05:42:47 05:46:32 42° 115° (ESE) 05:50:19 435.950
JUGNU 26 May 05:47:32 05:50:47 15° 183° (S) 05:54:02 437.505
STARS 26 May 05:48:56 05:52:57 36° 262° (W) 05:56:58 437.465
AO-7 26 May 06:01:05 06:07:50 28° 301° (WNW) 06:14:35 .
BEESAT 3 26 May 06:04:21 06:07:59 34° 305° (NW) 06:11:40 437.485
RS-15 26 May 06:06:44 06:14:42 19° 341° (NNW) 06:22:41 29.354- 29.394
STRAND 1 26 May 06:14:14 06:17:40 19° 65° (ENE) 06:21:08 437.568
LilacSat-2 26 May 06:18:13 06:21:42 31° 97° (E) 06:25:09 437.200
SRMSAT 26 May 06:26:40 06:29:25 13° 172° (S) 06:32:11 437.500
CUTE-I 26 May 06:39:42 06:44:50 46° 100° (E) 06:49:57 437.470
XW-2D 26 May 06:52:51 06:56:43 90° 307° (NW) 07:00:33 145.860 - 145.880
XW-2B 26 May 07:00:48 07:04:39 74° 283° (WNW) 07:08:28 145.730 - 145.750
DOVE 4 26 May 07:11:01 07:14:44 32° 288° (WNW) 07:18:31 437.250
XW-2F 26 May 07:13:51 07:17:35 50° 285° (WNW) 07:21:16 145.980 - 146.000
NUDT-PHONESAT 26 May 07:14:18 07:18:02 62° 285° (WNW) 07:21:45 437.300
XW-2C 26 May 07:14:34 07:18:16 46° 285° (WNW) 07:21:57 145.795 - 145.815
BEESAT 2 26 May 07:21:55 07:24:28 16° 311° (NW) 07:27:03 435.950
KAITUO 1B 26 May 07:22:15 07:25:55 47° 285° (WNW) 07:29:33 145.475/437.950
NO-84 26 May 07:32:00 07:35:21 22° 124° (ESE) 07:38:41 435.350 FM
SO-50 26 May 07:32:12 07:36:42 68° 58° (ENE) 07:41:12 436.795
CUTE 1.7 + AOD 2 26 May 07:41:18 07:45:17 38° 98° (E) 07:49:14 437.475
XW-2A 26 May 07:51:31 07:54:49 42° 99° (E) 07:58:06 145.665 - 145.685
STRAND 1 26 May 07:51:33 07:56:26 47° 260° (W) 08:01:22 437.568
LilacSat-2 26 May 07:53:19 07:55:41 16° 292° (WNW) 07:58:04 437.200
AAUSAT CUBESAT 2 26 May 07:57:58 08:00:36 16° 93° (E) 08:03:12 437.432
HO-68 26 May 08:04:13 08:11:24 67° 103° (ESE) 08:18:32 435.675
ZACube-1 26 May 08:06:08 08:07:43 12° 91° (E) 08:09:18 437.345
M-CUBED/EXP-1 PRIME 26 May 08:08:27 08:12:46 77° 72° (ENE) 08:16:47 437.505
CUBEBUG 2 26 May 08:14:20 08:18:46 46° 99° (E) 08:23:17 437.445
SRMSAT 26 May 08:14:29 08:17:47 15° 182° (S) 08:21:05 437.500
CUTE-I 26 May 08:20:40 08:24:30 21° 295° (WNW) 08:28:21 437.470
UWE-3 26 May 08:25:43 08:29:59 36° 98° (E) 08:34:15 435.000/436.395/437.385
RS-15 26 May 08:26:13 08:34:17 19° 19° (NNE) 08:42:09 29.354- 29.394
SEEDS 26 May 08:31:12 08:35:25 83° 283° (WNW) 08:39:35 437.485
FO-29 26 May 08:40:31 08:43:00 14° 62° (ENE) 08:45:31 435.910
TIGRISAT 26 May 08:53:54 08:55:57 13° 65° (ENE) 08:58:01 435.000
Oscar 11 26 May 09:00:13 09:04:09 33° 97° (E) 09:08:04 .
NO-84 26 May 09:08:29 09:12:44 47° 318° (NW) 09:16:52 435.350 FM
SO-50 26 May 09:15:39 09:16:33 11° 253° (WSW) 09:17:28 436.795
CUTE 1.7 + AOD 2 26 May 09:18:11 09:20:46 16° 293° (WNW) 09:23:20 437.475
UNISAT 6 26 May 09:23:32 09:27:17 31° 71° (ENE) 09:31:07 437.425
AO-73 26 May 09:25:56 09:30:30 88° 95° (E) 09:35:05 145.935
AAUSAT CUBESAT 2 26 May 09:32:24 09:36:07 33° 288° (WNW) 09:39:49 437.432
PRISM 26 May 09:37:07 09:41:12 63° 75° (ENE) 09:45:18 437.425
ZACube-1 26 May 09:39:48 09:44:17 58° 285° (WNW) 09:48:47 437.345
CUBEBUG 2 26 May 09:52:10 09:55:00 16° 293° (WNW) 09:57:52 437.445
HO-68 26 May 09:53:12 09:58:28 22° 300° (WNW) 10:03:43 435.675
DELFI C3 26 May 09:54:19 09:57:56 34° 98° (E) 10:01:30 145.870
EO-88 26 May 10:02:46 10:06:02 29° 97° (E) 10:09:16 145.990 - 145.960
UWE-3 26 May 10:02:49 10:06:08 20° 292° (WNW) 10:09:29 435.000/436.395/437.385
SRMSAT 26 May 10:04:44 10:06:07 11° 192° (SSW) 10:07:30 437.500
FO-29 26 May 10:22:23 10:27:30 62° 259° (W) 10:32:43 435.910
TIGRISAT 26 May 10:28:05 10:32:11 47° 261° (W) 10:36:21 435.000
Oscar 11 26 May 10:36:57 10:40:01 19° 292° (WNW) 10:43:04 .
RS-15 26 May 10:39:03 10:50:51 51° 50° (NE) 11:02:02 29.354- 29.394
NANOSAT C BR1 26 May 10:43:30 10:45:34 14° 66° (ENE) 10:47:39 145.865
YUBILEINY 26 May 10:46:13 10:51:04 16° 64° (ENE) 10:55:55 435.215
POLYITAN 1 26 May 10:47:05 10:49:45 17° 67° (ENE) 10:52:26 437.675
LO-87 26 May 10:48:23 10:49:55 12° 93° (E) 10:51:29 145.935 - 145.965
NO-84 26 May 10:49:54 10:51:11 11° 336° (NNW) 10:52:26 435.350 FM
DUCHIFAT 1 26 May 10:53:51 10:56:23 16° 67° (ENE) 10:58:56 145.980
QB50P2 26 May 10:55:03 10:58:19 22° 69° (ENE) 11:01:36 145.880/145.840
UNISAT 6 26 May 11:01:03 11:04:03 19° 266° (W) 11:07:06 437.425
AIST 2D 26 May 11:16:17 11:19:46 78° 79° (ENE) 11:23:19 435.315
DELFI C3 26 May 11:30:10 11:32:23 15° 292° (WNW) 11:34:34 145.870
EO-79 26 May 11:31:21 11:35:25 55° 75° (ENE) 11:39:32 145.935-145.965
EO-88 26 May 11:37:18 11:39:25 15° 292° (WNW) 11:41:32 145.990 - 145.960
NANOSAT C BR1 26 May 12:16:53 12:20:51 44° 261° (W) 12:24:52 145.865
LO-87 26 May 12:20:16 12:23:27 31° 287° (WNW) 12:26:36 145.935 - 145.965
POLYITAN 1 26 May 12:21:24 12:25:14 35° 262° (W) 12:29:06 437.675
ESTCUBE 1 26 May 12:24:31 12:29:01 73° 285° (WNW) 12:33:29 437.505/2401.250
DUCHIFAT 1 26 May 12:27:52 12:31:43 36° 262° (W) 12:35:35 145.980
QB50P2 26 May 12:30:28 12:33:58 25° 264° (W) 12:37:28 145.880/145.840
YUBILEINY 26 May 12:40:17 12:49:11 85° 85° (E) 12:58:02 435.215
BUGSAT 1 26 May 12:46:37 12:50:36 79° 257° (WSW) 12:54:38 437.445
RS-15 26 May 12:51:59 13:03:12 48° 252° (WSW) 13:13:54 29.354- 29.394
Gurwin Techsat 1B 26 May 13:00:15 13:04:44 29° 68° (ENE) 13:09:15 435.225
AO-85 26 May 13:10:01 13:13:39 31° 55° (NE) 13:17:25 145.980
EO-79 26 May 13:11:22 13:11:29 10° 269° (W) 13:11:36 145.935-145.965
AO-7 26 May 13:16:43 13:20:21 14° 50° (NE) 13:23:59 .
SPROUT 26 May 13:16:48 13:21:04 73° 285° (WNW) 13:25:20 437.525
VELOX 1 26 May 13:21:12 13:25:33 69° 285° (WNW) 13:29:54 145.980
Oscar 19 26 May 13:23:08 13:28:20 82° 76° (ENE) 13:33:33 437.125/150
50 SAT 26 May 13:35:08 13:38:32 78° 283° (WNW) 13:41:53 437.505
UKube-1 26 May 13:49:56 13:54:09 54° 101° (E) 13:58:21 .
O/OREOS (USA 219) 26 May 13:55:01 13:59:30 62° 68° (ENE) 14:03:55 437.305
DX 1 26 May 13:57:15 14:01:35 81° 284° (WNW) 14:05:54 434.975-435.025
BEESAT 2 26 May 14:03:41 14:05:54 14° 47° (NE) 14:08:06 435.950
BEESAT 3 26 May 14:22:54 14:26:52 57° 58° (ENE) 14:30:45 437.485
ITAMSAT 1 26 May 14:25:36 14:29:46 25° 67° (ENE) 14:33:58 435.822/435.867
YUBILEINY 26 May 14:39:38 14:44:44 17° 281° (WNW) 14:49:51 435.215
Gurwin Techsat 1B 26 May 14:39:53 14:44:33 31° 263° (W) 14:49:15 435.225
AO-85 26 May 14:50:43 14:53:51 21° 248° (WSW) 14:57:07 145.980
BEESAT 26 May 14:56:30 15:00:21 24° 96° (E) 15:04:10 436.000
AO-7 26 May 15:03:24 15:11:34 68° 69° (ENE) 15:19:48 .
UKube-1 26 May 15:27:59 15:29:41 12° 295° (WNW) 15:31:21 .
BEESAT 2 26 May 15:40:01 15:43:58 53° 244° (WSW) 15:47:52 435.950
NO-84 26 May 15:45:12 15:48:39 36° 39° (NE) 15:51:49 435.350 FM
ITUPSAT 1 26 May 15:59:50 16:04:38 73° 286° (WNW) 16:09:26 437.325
ITAMSAT 1 26 May 16:04:22 16:09:02 34° 262° (W) 16:13:44 435.822/435.867
MOZHAYETS 4 26 May 16:15:57 16:20:37 83° 285° (WNW) 16:25:14
BEESAT 26 May 16:33:52 16:38:05 31° 290° (WNW) 16:42:18 436.000
DOVE 4 26 May 16:37:53 16:40:31 15° 68° (ENE) 16:43:06 437.250
AO-7 26 May 16:58:38 17:04:51 23° 265° (W) 17:11:08 .
LilacSat-2 26 May 16:59:34 17:00:59 12° 66° (ENE) 17:02:24 437.200
CUBESAT XI-V 26 May 17:01:56 17:06:29 51° 100° (E) 17:10:57 437.345
KKS-1 26 May 17:09:16 17:13:35 49° 100° (E) 17:17:53 437.445
NO-84 26 May 17:23:34 17:25:53 17° 238° (WSW) 17:28:03 435.350 FM
XW-2D 26 May 17:31:45 17:35:02 28° 72° (ENE) 17:38:22 145.860 - 145.880
XW-2B 26 May 17:39:31 17:42:58 34° 73° (ENE) 17:46:27 145.730 - 145.750
STARS 26 May 17:40:10 17:44:23 45° 100° (E) 17:48:35 437.465
NUDT-PHONESAT 26 May 17:50:59 17:54:24 36° 73° (ENE) 17:57:51 437.300
XW-2F 26 May 17:51:51 17:55:30 48° 75° (ENE) 17:59:11 145.980 - 146.000
XW-2C 26 May 17:52:53 17:56:35 53° 75° (ENE) 18:00:20 145.795 - 145.815
CUTE-I 26 May 17:59:01 18:04:13 60° 73° (ENE) 18:09:26 437.470
KAITUO 1B 26 May 17:59:20 18:02:58 48° 75° (ENE) 18:06:38 145.475/437.950
DOVE 4 26 May 18:13:24 18:17:53 45° 260° (W) 18:22:09 437.250
HO-68 26 May 18:30:17 18:36:46 38° 66° (ENE) 18:43:16 435.675
LilacSat-2 26 May 18:31:11 18:34:50 42° 261° (W) 18:38:31 437.200
CUTE 1.7 + AOD 2 26 May 18:31:56 18:35:07 21° 69° (ENE) 18:38:20 437.475
PCSat 26 May 18:35:02 18:40:03 40° 110° (ESE) 18:45:06 145.827
CUBESAT XI-V 26 May 18:40:53 18:43:21 14° 295° (WNW) 18:45:50 437.345
KKS-1 26 May 18:47:26 18:49:41 14° 295° (WNW) 18:51:56 437.445
XW-2D 26 May 19:06:50 19:09:15 16° 266° (W) 19:11:40 145.860 - 145.880
CUBEBUG 2 26 May 19:10:37 19:14:03 26° 70° (ENE) 19:17:32 437.445
XW-2B 26 May 19:15:21 19:17:15 13° 267° (W) 19:19:09 145.730 - 145.750
STARS 26 May 19:17:52 19:20:18 15° 294° (WNW) 19:22:45 437.465
SEEDS 26 May 19:19:58 19:24:01 46° 74° (ENE) 19:28:07 437.485
UWE-3 26 May 19:21:05 19:24:09 20° 68° (ENE) 19:27:17 435.000/436.395/437.385
NUDT-PHONESAT 26 May 19:27:00 19:28:25 12° 268° (W) 19:29:53 437.300
CUTE-I 26 May 19:41:45 19:44:37 15° 268° (W) 19:47:28 437.470
Tancredo 1 26 May 19:52:29 19:55:33 86° 137° (SE) 19:58:38 437.200
XW-2A 26 May 19:52:49 19:55:56 36° 262° (W) 19:59:05 145.665 - 145.685
Oscar 11 26 May 19:53:07 19:56:13 19° 68° (ENE) 19:59:20 .
STRAND 1 26 May 20:04:10 20:09:19 72° 102° (ESE) 20:14:27 437.568
CUTE 1.7 + AOD 2 26 May 20:07:01 20:10:45 29° 264° (W) 20:14:30 437.475
HO-68 26 May 20:17:52 20:24:23 37° 262° (W) 20:30:58 435.675
AO-73 26 May 20:18:50 20:22:51 46° 74° (ENE) 20:26:58 145.935
PCSat 26 May 20:19:02 20:23:32 26° 307° (NW) 20:28:04 145.827
AAUSAT CUBESAT 2 26 May 20:19:04 20:23:15 74° 260° (W) 20:27:26 437.432
ISS 26 May 20:25:14 20:28:31 71° 321° (NW) 20:31:48 437.550
ZACube-1 26 May 20:32:45 20:36:56 78° 78° (ENE) 20:41:14 437.345
DELFI C3 26 May 20:38:20 20:40:41 15° 68° (ENE) 20:43:00 145.870
CUBEBUG 2 26 May 20:47:25 20:50:37 21° 265° (W) 20:53:52 437.445
UWE-3 26 May 20:56:48 21:00:25 28° 264° (W) 21:04:06 435.000/436.395/437.385
SEEDS 26 May 20:58:07 20:59:55 12° 268° (W) 21:01:44 437.485
M-CUBED/EXP-1 PRIME 26 May 21:23:51 21:27:07 81° 106° (ESE) 21:30:22 437.505
Oscar 11 26 May 21:28:13 21:32:05 32° 263° (W) 21:36:02 .
Tancredo 1 26 May 21:30:10 21:31:40 13° 335° (NNW) 21:33:11 437.200
FO-29 26 May 21:32:55 21:37:51 21° 94° (E) 21:43:07 435.910
SO-50 26 May 21:44:03 21:48:19 38° 114° (ESE) 21:52:33 436.795
STRAND 1 26 May 21:45:35 21:47:50 13° 298° (WNW) 21:50:06 437.568
AO-73 26 May 21:57:39 21:59:21 12° 269° (W) 22:01:04 145.935
ISS 26 May 22:04:03 22:05:30 12° 337° (NNW) 22:06:59 437.550
EO-88 26 May 22:11:01 22:14:31 47° 260° (W) 22:18:05 145.990 - 145.960
DELFI C3 26 May 22:11:27 22:15:07 35° 262° (W) 22:18:48 145.870
TIGRISAT 26 May 22:21:27 22:25:50 41° 99° (E) 22:30:15 435.000
UNISAT 6 26 May 22:53:04 22:57:43 80° 284° (WNW) 23:02:23 437.425
LO-87 26 May 22:53:15 22:56:45 62° 76° (ENE) 23:00:15 145.935 - 145.965
PRISM 26 May 22:55:55 22:59:53 53° 286° (WNW) 23:03:49 437.425
FO-29 26 May 23:16:36 23:23:03 64° 287° (WNW) 23:30:18 435.910
EO-79 26 May 23:20:54 23:21:55 11° 91° (E) 23:22:55 145.935-145.965
ESTCUBE 1 26 May 23:21:04 23:25:35 75° 76° (ENE) 23:30:07 437.505/2401.250
SO-50 26 May 23:25:18 23:28:52 22° 310° (NW) 23:32:27 436.795
YUBILEINY 26 May 23:45:07 23:50:39 19° 80° (E) 23:56:11 435.215
TIGRISAT 26 May 23:59:05 00:02:09 18° 293° (WNW) 00:05:16 435.000
NANOSAT C BR1 27 May 00:03:26 00:07:17 32° 98° (E) 00:11:05 145.865
50 SAT 27 May 00:05:20 00:08:06 23° 71° (ENE) 00:10:54 437.505
SPROUT 27 May 00:07:18 00:11:27 59° 75° (ENE) 00:15:38 437.525
POLYITAN 1 27 May 00:08:08 00:12:12 41° 99° (E) 00:16:15 437.675
DUCHIFAT 1 27 May 00:13:51 00:17:49 38° 98° (E) 00:21:46 145.980
VELOX 1 27 May 00:15:29 00:19:54 75° 76° (ENE) 00:24:19 145.980
QB50P2 27 May 00:16:43 00:20:56 58° 101° (E) 00:25:08 145.880/145.840
AIST 2D 27 May 00:16:45 00:20:15 57° 284° (WNW) 00:23:44 435.315
BUGSAT 1 27 May 00:31:29 00:34:16 17° 95° (E) 00:37:04 437.445
UKube-1 27 May 00:41:57 00:45:47 33° 71° (ENE) 00:49:39 .
DX 1 27 May 00:49:56 00:54:13 62° 74° (ENE) 00:58:31 434.975-435.025
EO-79 27 May 00:53:47 00:57:57 54° 286° (WNW) 01:02:06 145.935-145.965
RS-15 27 May 00:59:04 01:09:41 39° 105° (ESE) 01:20:33 29.354- 29.394
Gurwin Techsat 1B 27 May 01:20:16 01:22:43 13° 91° (E) 01:25:10 435.225
Oscar 19 27 May 01:37:33 01:42:14 34° 97° (E) 01:46:52 437.125/150
YUBILEINY 27 May 01:37:37 01:46:19 78° 277° (W) 01:55:08 435.215
50 SAT 27 May 01:38:44 01:40:55 16° 265° (W) 01:43:06 437.505
NANOSAT C BR1 27 May 01:39:46 01:42:43 19° 292° (WNW) 01:45:40 145.865
POLYITAN 1 27 May 01:45:08 01:47:36 15° 293° (WNW) 01:50:05 437.675
DUCHIFAT 1 27 May 01:50:34 01:53:08 16° 293° (WNW) 01:55:43 145.980
QB50P2 27 May 01:54:57 01:56:11 11° 295° (WNW) 01:57:24 145.880/145.840
BEESAT 27 May 02:00:48 02:04:23 22° 67° (ENE) 02:07:58 436.000
BUGSAT 1 27 May 02:05:57 02:09:39 32° 288° (WNW) 02:13:23 437.445
UKube-1 27 May 02:18:52 02:21:51 18° 265° (W) 02:24:52 .
Tancredo 1 27 May 02:19:35 02:22:22 30° 34° (NE) 02:25:08 437.200
ISS 27 May 02:55:13 02:58:23 44° 37° (NE) 03:01:32 437.550
Gurwin Techsat 1B 27 May 02:57:48 03:03:05 66° 285° (WNW) 03:08:19 435.225
ITUPSAT 1 27 May 03:03:48 03:08:34 83° 258° (WSW) 03:13:23 437.325
AO-7 27 May 03:08:46 03:15:21 25° 96° (E) 03:21:53 .
RS-15 27 May 03:09:40 03:21:35 61° 306° (NW) 03:33:50 29.354- 29.394
MOZHAYETS 4 27 May 03:14:56 03:19:30 70° 76° (ENE) 03:24:06
Oscar 19 27 May 03:17:11 03:21:21 25° 293° (WNW) 03:25:29 437.125/150
AO-85 27 May 03:23:18 03:26:06 17° 111° (ESE) 03:28:48 145.980
PCSat 27 May 03:25:42 03:29:48 21° 51° (NE) 03:33:53 145.827
BEESAT 27 May 03:37:34 03:41:53 35° 262° (W) 03:46:15 436.000
YUBILEINY 27 May 03:40:41 03:44:37 14° 298° (WNW) 03:48:36 435.215
JUGNU 27 May 03:44:21 03:47:24 14° 174° (S) 03:50:28 437.505
Tancredo 1 27 May 03:55:41 03:57:58 19° 230° (SW) 04:00:16 437.200
CUBESAT XI-V 27 May 04:02:33 04:06:54 38° 72° (ENE) 04:11:14 437.345
O/OREOS (USA 219) 27 May 04:04:28 04:09:02 69° 291° (WNW) 04:13:38 437.305
KKS-1 27 May 04:04:55 04:08:53 33° 71° (ENE) 04:12:52 437.445
BEESAT 3 27 May 04:11:25 04:13:58 17° 110° (ESE) 04:16:33 437.485
ITAMSAT 1 27 May 04:18:58 04:24:11 82° 286° (WNW) 04:29:24 435.822/435.867
ISS 27 May 04:32:39 04:34:35 15° 232° (SW) 04:36:31 437.550
STARS 27 May 04:34:28 04:38:14 29° 70° (ENE) 04:42:01 437.465
AO-7 27 May 05:00:18 05:08:32 65° 292° (WNW) 05:16:46 .
AO-85 27 May 05:02:22 05:06:14 35° 305° (NW) 05:09:56 145.980
PCSat 27 May 05:08:14 05:13:30 53° 248° (WSW) 05:18:43 145.827
